sat.trackr.live / text

‹ back to catalog

STARLINK-2645

NORAD 48444 · 2021-040S

PAYLOAD ACTIVE UNKNOWN

§ Identity

Operator
Country
US
Launch date
2021-05-09
Launch site
AFETR
Launch vehicle
Mass (kg)
RCS (m²)

Purposes: comms

External: N2YO · Heavens-Above · Gunter

§ Orbital elements

Epoch: 2026-05-25T02:09:07.119072Z

Period
94.01 min
Inclination
53.1592°
Eccentricity
0.0001353
Mean motion
15.31694254 rev/d
Perigee alt
469.8 km
Apogee alt
471.7 km
Semi-major
6,848.9 km
B*
-7.0319e-6
RAAN
182.8387°
Arg perigee
102.8406°
Mean anomaly
257.2746°
Rev number
27,838

§ Raw data

STARLINK-26451 48444U 21040S   26145.08966573 -.00000583  00000+0 -70319-5 0  99952 48444  53.1592 182.8387 0001353 102.8406 257.2746 15.31694254278382

JSON: /api/v1/satellites/48444 · /tle

For live sub-satellite position, see the globe view (requires WebGL).

§ Visibility from observer

Set your observer location to see the next 7 days of passes ≥ 10°. The values pass through the URL so the page stays shareable.

No JS? Fill the form by hand. The geolocation button needs JavaScript.